Location: 22
(39.7117°N, 89.5929°W)
Time: 09:06:14
(UTC-05:00)

S-56A Canister/Altair - Pass Details

Date: 07 February 2023
Orbit: 638 x 2493 km, 38.9° (Epoch: 25 March)

Event Time Altitude Azimuth Distance (km) Brightness Sun altitude
Rises 09:25:54 0° 236° (WSW) 3,061 10.5 22.7°
Reaches altitude 10° 09:28:24 10° 230° (SW) 2,060 9.8 23.1°
Maximum altitude 09:32:41 43° 158° (SSE) 894 9.3 23.6°
Drops below altitude 10° 09:37:06 10° 87° (E) 2,123 10.4 24.2°
Sets 09:39:43 0° 80° (E) 3,168 11.1 24.5°
